Time,TemperatureF,DewpointF,PressureIn,WindDirection,WindDirectionDegrees,WindSpeedMPH,WindSpeedGustMPH,Humidity,HourlyPrecipIn,Conditions,Clouds,dailyrainin,SoftwareType,DateUTC
2017-01-23 00:04:00,48.0,47.8,30.60,NE,44,0.0,1.3,99,0.00,,,0.00,Weather logger V3.1.,2017-01-23 05:04:00,
2017-01-23 00:10:00,48.0,47.8,30.59,East,88,0.0,2.7,99,0.00,,,0.00,Weather logger V3.1.,2017-01-23 05:10:00,
2017-01-23 00:15:00,48.0,47.8,30.59,East,88,0.0,2.7,99,0.07,,,0.01,Weather logger V3.1.,2017-01-23 05:15:00,
2017-01-23 00:20:00,48.0,47.8,30.59,East,88,1.3,2.7,99,0.07,,,0.01,Weather logger V3.1.,2017-01-23 05:20:00,
2017-01-23 00:26:00,48.2,48.0,30.58,East,88,1.3,2.7,99,0.00,,,0.01,Weather logger V3.1.,2017-01-23 05:26:00,
2017-01-23 00:31:00,48.2,48.0,30.58,North,0,2.7,6.7,99,0.00,,,0.01,Weather logger V3.1.,2017-01-23 05:31:00,
2017-01-23 00:36:00,48.2,48.0,30.58,East,88,1.3,4.0,99,0.00,,,0.01,Weather logger V3.1.,2017-01-23 05:36:00,
2017-01-23 00:42:00,48.2,48.0,30.59,East,88,0.0,2.7,99,0.00,,,0.01,Weather logger V3.1.,2017-01-23 05:42:00,
2017-01-23 00:47:00,48.4,48.2,30.59,NE,44,1.3,2.7,99,0.00,,,0.01,Weather logger V3.1.,2017-01-23 05:47:00,
2017-01-23 00:52:00,48.4,48.2,30.59,East,88,0.0,0.0,99,0.07,,,0.02,Weather logger V3.1.,2017-01-23 05:52:00,
2017-01-23 00:58:00,48.4,48.2,30.59,North,0,0.0,0.0,99,0.00,,,0.02,Weather logger V3.1.,2017-01-23 05:58:00,
2017-01-23 01:03:00,48.4,48.2,30.59,East,88,0.0,1.3,99,0.00,,,0.02,Weather logger V3.1.,2017-01-23 06:03:00,
2017-01-23 01:08:00,48.4,48.2,30.59,North,0,0.0,0.0,99,0.00,,,0.02,Weather logger V3.1.,2017-01-23 06:08:00,
2017-01-23 01:14:00,48.2,48.0,30.59,North,0,0.0,0.0,99,0.00,,,0.02,Weather logger V3.1.,2017-01-23 06:14:00,
2017-01-23 01:19:00,48.2,48.0,30.58,North,0,0.0,0.0,99,0.00,,,0.02,Weather logger V3.1.,2017-01-23 06:19:00,
2017-01-23 01:24:00,48.2,48.0,30.58,North,0,0.0,2.7,99,0.00,,,0.02,Weather logger V3.1.,2017-01-23 06:24:00,
2017-01-23 01:30:00,48.0,47.8,30.58,North,0,0.0,0.0,99,0.07,,,0.04,Weather logger V3.1.,2017-01-23 06:30:00,
2017-01-23 01:35:00,48.0,47.8,30.57,North,0,1.3,2.7,99,0.00,,,0.04,Weather logger V3.1.,2017-01-23 06:35:00,
2017-01-23 01:40:00,48.0,47.8,30.58,East,88,0.0,0.0,99,0.00,,,0.04,Weather logger V3.1.,2017-01-23 06:40:00,
2017-01-23 01:46:00,48.0,47.8,30.56,North,0,0.0,1.3,99,0.00,,,0.04,Weather logger V3.1.,2017-01-23 06:46:00,
2017-01-23 01:51:00,48.0,47.8,30.55,North,0,1.3,2.7,99,0.07,,,0.05,Weather logger V3.1.,2017-01-23 06:51:00,
2017-01-23 01:56:00,48.0,47.8,30.55,East,88,0.0,1.3,99,0.07,,,0.05,Weather logger V3.1.,2017-01-23 06:56:00,
2017-01-23 02:02:00,48.0,47.8,30.55,NE,44,4.0,5.4,99,0.00,,,0.05,Weather logger V3.1.,2017-01-23 07:02:00,
2017-01-23 02:07:00,48.2,48.0,30.55,East,88,2.7,4.0,99,0.07,,,0.06,Weather logger V3.1.,2017-01-23 07:07:00,
2017-01-23 02:12:00,48.4,48.2,30.55,East,88,4.0,6.7,99,0.07,,,0.06,Weather logger V3.1.,2017-01-23 07:12:00,
2017-01-23 02:18:00,48.6,48.4,30.55,East,88,1.3,4.0,99,0.00,,,0.06,Weather logger V3.1.,2017-01-23 07:18:00,
2017-01-23 02:23:00,48.6,48.4,30.55,NE,44,1.3,2.7,99,0.00,,,0.06,Weather logger V3.1.,2017-01-23 07:23:00,
2017-01-23 02:28:00,48.6,48.4,30.55,East,88,4.0,5.4,99,0.00,,,0.06,Weather logger V3.1.,2017-01-23 07:28:00,
2017-01-23 02:34:00,48.6,48.4,30.55,East,88,4.0,12.1,99,0.00,,,0.06,Weather logger V3.1.,2017-01-23 07:34:00,
2017-01-23 02:39:00,48.6,48.4,30.55,North,0,5.4,10.7,99,0.07,,,0.07,Weather logger V3.1.,2017-01-23 07:39:00,
2017-01-23 02:44:00,48.7,48.6,30.55,NE,44,4.0,6.7,99,0.07,,,0.07,Weather logger V3.1.,2017-01-23 07:44:00,
2017-01-23 02:50:00,48.7,48.6,30.54,East,88,4.0,8.1,99,0.00,,,0.07,Weather logger V3.1.,2017-01-23 07:50:00,
2017-01-23 02:55:00,48.6,48.4,30.54,East,88,4.0,8.1,99,0.00,,,0.07,Weather logger V3.1.,2017-01-23 07:55:00,
2017-01-23 03:00:00,48.6,48.4,30.53,NE,44,6.7,9.4,99,0.00,,,0.07,Weather logger V3.1.,2017-01-23 08:00:00,
2017-01-23 03:06:00,48.7,48.6,30.53,East,88,6.7,9.4,99,0.00,,,0.07,Weather logger V3.1.,2017-01-23 08:06:00,
2017-01-23 03:11:00,48.6,48.4,30.53,East,88,4.0,6.7,99,0.00,,,0.07,Weather logger V3.1.,2017-01-23 08:11:00,
2017-01-23 03:16:00,48.6,48.4,30.53,East,88,8.1,14.8,99,0.00,,,0.07,Weather logger V3.1.,2017-01-23 08:16:00,
2017-01-23 03:22:00,48.6,48.4,30.53,NE,44,6.7,13.4,99,0.07,,,0.08,Weather logger V3.1.,2017-01-23 08:22:00,
2017-01-23 03:27:00,48.4,48.2,30.52,NE,44,5.4,8.1,99,0.07,,,0.08,Weather logger V3.1.,2017-01-23 08:27:00,
2017-01-23 03:32:00,48.6,48.4,30.52,NE,44,5.4,6.7,99,0.00,,,0.08,Weather logger V3.1.,2017-01-23 08:32:00,
2017-01-23 03:38:00,48.4,48.2,30.51,NE,44,5.4,8.1,99,0.00,,,0.08,Weather logger V3.1.,2017-01-23 08:38:00,
2017-01-23 03:43:00,48.4,48.2,30.51,East,88,8.1,10.7,99,0.07,,,0.09,Weather logger V3.1.,2017-01-23 08:43:00,
2017-01-23 03:48:00,48.4,47.8,30.50,East,88,6.7,9.4,98,0.00,,,0.09,Weather logger V3.1.,2017-01-23 08:48:00,
2017-01-23 03:54:00,48.4,47.8,30.51,NE,44,6.7,10.7,98,0.00,,,0.09,Weather logger V3.1.,2017-01-23 08:54:00,
2017-01-23 03:59:00,48.2,47.7,30.50,East,88,6.7,13.4,98,0.00,,,0.09,Weather logger V3.1.,2017-01-23 08:59:00,
2017-01-23 04:04:00,48.2,47.7,30.50,NE,44,6.7,10.7,98,0.00,,,0.09,Weather logger V3.1.,2017-01-23 09:04:00,
2017-01-23 04:10:00,48.0,47.8,30.51,North,0,5.4,8.1,99,0.00,,,0.09,Weather logger V3.1.,2017-01-23 09:10:00,
2017-01-23 04:15:00,48.0,47.8,30.50,North,0,6.7,10.7,99,0.00,,,0.09,Weather logger V3.1.,2017-01-23 09:15:00,
2017-01-23 04:21:00,48.0,47.8,30.50,East,88,5.4,9.4,99,0.00,,,0.09,Weather logger V3.1.,2017-01-23 09:21:00,
2017-01-23 04:26:00,47.8,47.3,30.50,NE,44,4.0,6.7,98,0.00,,,0.09,Weather logger V3.1.,2017-01-23 09:26:00,
2017-01-23 04:31:00,47.8,47.3,30.50,NE,44,8.1,12.1,98,0.00,,,0.09,Weather logger V3.1.,2017-01-23 09:31:00,
2017-01-23 04:37:00,47.8,47.3,30.49,North,0,5.4,9.4,98,0.00,,,0.09,Weather logger V3.1.,2017-01-23 09:37:00,
2017-01-23 04:42:00,47.8,47.3,30.49,North,0,5.4,8.1,98,0.07,,,0.11,Weather logger V3.1.,2017-01-23 09:42:00,
2017-01-23 04:47:00,47.8,47.3,30.48,East,88,2.7,5.4,98,0.07,,,0.11,Weather logger V3.1.,2017-01-23 09:47:00,
2017-01-23 04:53:00,47.7,47.1,30.47,East,88,4.0,5.4,98,0.00,,,0.11,Weather logger V3.1.,2017-01-23 09:53:00,
2017-01-23 04:58:00,47.7,47.1,30.47,NE,44,4.0,8.1,98,0.00,,,0.11,Weather logger V3.1.,2017-01-23 09:58:00,
2017-01-23 05:03:00,47.7,47.1,30.46,East,88,2.7,5.4,98,0.00,,,0.11,Weather logger V3.1.,2017-01-23 10:03:00,
2017-01-23 05:09:00,47.5,46.9,30.47,North,0,4.0,8.1,98,0.00,,,0.11,Weather logger V3.1.,2017-01-23 10:09:00,
2017-01-23 05:14:00,47.5,46.8,30.46,East,88,4.0,6.7,97,0.07,,,0.12,Weather logger V3.1.,2017-01-23 10:14:00,
2017-01-23 05:19:00,47.5,46.9,30.44,East,88,5.4,6.7,98,0.07,,,0.12,Weather logger V3.1.,2017-01-23 10:19:00,
2017-01-23 05:25:00,47.3,46.8,30.45,NE,44,4.0,5.4,98,0.00,,,0.12,Weather logger V3.1.,2017-01-23 10:25:00,
2017-01-23 05:30:00,47.3,46.8,30.45,NE,44,5.4,9.4,98,0.00,,,0.12,Weather logger V3.1.,2017-01-23 10:30:00,
2017-01-23 05:35:00,47.3,46.8,30.46,East,88,5.4,13.4,98,0.00,,,0.12,Weather logger V3.1.,2017-01-23 10:35:00,
2017-01-23 05:41:00,47.3,46.8,30.46,NE,44,4.0,6.7,98,0.00,,,0.12,Weather logger V3.1.,2017-01-23 10:41:00,
2017-01-23 05:46:00,47.3,46.8,30.47,NE,44,4.0,5.4,98,0.00,,,0.12,Weather logger V3.1.,2017-01-23 10:46:00,
2017-01-23 05:51:00,47.3,46.8,30.47,East,88,4.0,6.7,98,0.00,,,0.12,Weather logger V3.1.,2017-01-23 10:51:00,
2017-01-23 05:57:00,47.1,46.6,30.47,North,0,2.7,6.7,98,0.00,,,0.12,Weather logger V3.1.,2017-01-23 10:57:00,
2017-01-23 06:02:00,47.1,46.4,30.47,North,0,2.7,5.4,97,0.00,,,0.12,Weather logger V3.1.,2017-01-23 11:02:00,
2017-01-23 06:07:00,47.3,46.8,30.46,North,0,2.7,4.0,98,0.00,,,0.12,Weather logger V3.1.,2017-01-23 11:07:00,
2017-01-23 06:13:00,47.1,46.6,30.47,North,0,0.0,1.3,98,0.07,,,0.13,Weather logger V3.1.,2017-01-23 11:13:00,
2017-01-23 06:18:00,47.1,46.6,30.47,North,0,0.0,2.7,98,0.07,,,0.14,Weather logger V3.1.,2017-01-23 11:18:00,
2017-01-23 06:23:00,47.1,46.6,30.45,North,0,1.3,2.7,98,0.14,,,0.15,Weather logger V3.1.,2017-01-23 11:23:00,
2017-01-23 06:29:00,47.1,46.6,30.45,East,88,1.3,4.0,98,0.28,,,0.19,Weather logger V3.1.,2017-01-23 11:29:00,
2017-01-23 06:34:00,46.9,46.4,30.45,East,88,2.7,5.4,98,0.21,,,0.20,Weather logger V3.1.,2017-01-23 11:34:00,
2017-01-23 06:39:00,46.9,46.2,30.43,NE,44,6.7,13.4,97,0.14,,,0.21,Weather logger V3.1.,2017-01-23 11:39:00,
2017-01-23 06:45:00,46.9,46.2,30.43,East,88,6.7,9.4,97,0.00,,,0.21,Weather logger V3.1.,2017-01-23 11:45:00,
2017-01-23 06:50:00,46.9,46.2,30.44,East,88,2.7,5.4,97,0.00,,,0.21,Weather logger V3.1.,2017-01-23 11:50:00,
2017-01-23 06:55:00,46.9,46.2,30.45,North,0,6.7,10.7,97,0.00,,,0.21,Weather logger V3.1.,2017-01-23 11:55:00,
2017-01-23 07:01:00,46.9,46.2,30.45,NE,44,4.0,6.7,97,0.00,,,0.21,Weather logger V3.1.,2017-01-23 12:01:00,
2017-01-23 07:06:00,46.8,46.2,30.45,East,88,4.0,8.1,98,0.00,,,0.21,Weather logger V3.1.,2017-01-23 12:06:00,
2017-01-23 07:11:00,46.8,46.2,30.44,North,0,4.0,9.4,98,0.07,,,0.22,Weather logger V3.1.,2017-01-23 12:11:00,
2017-01-23 07:17:00,46.6,46.0,30.43,NW,308,2.7,5.4,98,0.14,,,0.24,Weather logger V3.1.,2017-01-23 12:17:00,
2017-01-23 07:22:00,46.4,45.9,30.45,North,0,2.7,5.4,98,0.14,,,0.25,Weather logger V3.1.,2017-01-23 12:22:00,
2017-01-23 07:27:00,46.4,45.9,30.45,North,0,2.7,5.4,98,0.14,,,0.26,Weather logger V3.1.,2017-01-23 12:27:00,
2017-01-23 07:33:00,46.4,45.9,30.47,NE,44,4.0,12.1,98,0.00,,,0.26,Weather logger V3.1.,2017-01-23 12:33:00,
2017-01-23 07:38:00,46.4,45.9,30.46,East,88,4.0,6.7,98,0.07,,,0.27,Weather logger V3.1.,2017-01-23 12:38:00,
2017-01-23 07:43:00,46.2,45.7,30.46,NE,44,0.0,4.0,98,0.14,,,0.28,Weather logger V3.1.,2017-01-23 12:43:00,
2017-01-23 07:49:00,46.2,45.7,30.45,North,0,2.7,4.0,98,0.21,,,0.31,Weather logger V3.1.,2017-01-23 12:49:00,
2017-01-23 07:54:00,46.2,45.7,30.45,North,0,1.3,2.7,98,0.21,,,0.33,Weather logger V3.1.,2017-01-23 12:54:00,
2017-01-23 07:59:00,46.0,45.9,30.45,North,0,2.7,4.0,99,0.21,,,0.34,Weather logger V3.1.,2017-01-23 12:59:00,
2017-01-23 08:05:00,45.9,45.7,30.43,North,0,2.7,5.4,99,0.14,,,0.35,Weather logger V3.1.,2017-01-23 13:05:00,
2017-01-23 08:10:00,45.9,45.7,30.43,East,88,2.7,5.4,99,0.07,,,0.35,Weather logger V3.1.,2017-01-23 13:10:00,
2017-01-23 08:15:00,45.7,45.5,30.43,NE,44,4.0,6.7,99,0.07,,,0.37,Weather logger V3.1.,2017-01-23 13:15:00,
2017-01-23 08:21:00,45.7,45.5,30.44,North,0,2.7,5.4,99,0.07,,,0.38,Weather logger V3.1.,2017-01-23 13:21:00,
2017-01-23 08:26:00,45.5,45.3,30.44,NE,44,5.4,6.7,99,0.21,,,0.40,Weather logger V3.1.,2017-01-23 13:26:00,
2017-01-23 08:31:00,45.5,45.3,30.46,NE,44,1.3,4.0,99,0.14,,,0.40,Weather logger V3.1.,2017-01-23 13:31:00,
2017-01-23 08:37:00,45.5,45.0,30.44,North,0,1.3,2.7,98,0.14,,,0.43,Weather logger V3.1.,2017-01-23 13:37:00,
2017-01-23 08:42:00,45.5,45.3,30.44,North,0,4.0,6.7,99,0.35,,,0.46,Weather logger V3.1.,2017-01-23 13:42:00,
2017-01-23 08:47:00,45.3,45.1,30.42,North,0,4.0,6.7,99,0.14,,,0.46,Weather logger V3.1.,2017-01-23 13:47:00,
2017-01-23 08:53:00,45.3,44.8,30.42,North,0,2.7,5.4,98,0.07,,,0.47,Weather logger V3.1.,2017-01-23 13:53:00,
2017-01-23 08:58:00,45.1,45.0,30.41,North,0,2.7,6.7,99,0.07,,,0.48,Weather logger V3.1.,2017-01-23 13:58:00,
2017-01-23 09:03:00,45.1,45.0,30.40,East,88,2.7,6.7,99,0.14,,,0.50,Weather logger V3.1.,2017-01-23 14:03:00,
2017-01-23 09:09:00,45.1,44.6,30.42,NE,44,4.0,6.7,98,0.07,,,0.50,Weather logger V3.1.,2017-01-23 14:09:00,
2017-01-23 09:14:00,45.1,44.6,30.42,North,0,2.7,6.7,98,0.00,,,0.50,Weather logger V3.1.,2017-01-23 14:14:00,
2017-01-23 09:19:00,45.0,44.4,30.41,North,0,2.7,5.4,98,0.00,,,0.50,Weather logger V3.1.,2017-01-23 14:19:00,
2017-01-23 09:25:00,44.8,44.2,30.41,North,0,4.0,6.7,98,0.07,,,0.51,Weather logger V3.1.,2017-01-23 14:25:00,
2017-01-23 09:31:00,44.8,44.2,30.41,NE,44,4.0,6.7,98,0.14,,,0.52,Weather logger V3.1.,2017-01-23 14:31:00,
2017-01-23 09:36:00,44.6,44.1,30.41,East,88,2.7,5.4,98,0.07,,,0.52,Weather logger V3.1.,2017-01-23 14:36:00,
2017-01-23 09:42:00,44.6,44.1,30.41,East,88,2.7,6.7,98,0.14,,,0.54,Weather logger V3.1.,2017-01-23 14:42:00,
2017-01-23 09:47:00,44.6,44.1,30.40,NE,44,4.0,8.1,98,0.21,,,0.56,Weather logger V3.1.,2017-01-23 14:47:00,
2017-01-23 09:52:00,44.4,43.9,30.44,East,88,4.0,9.4,98,0.14,,,0.57,Weather logger V3.1.,2017-01-23 14:52:00,
2017-01-23 09:57:00,44.6,44.1,30.45,NE,44,6.7,9.4,98,0.14,,,0.58,Weather logger V3.1.,2017-01-23 14:57:00,
2017-01-23 10:03:00,44.4,43.9,30.43,North,0,2.7,4.0,98,0.21,,,0.60,Weather logger V3.1.,2017-01-23 15:03:00,
2017-01-23 10:08:00,44.4,43.9,30.44,NE,44,2.7,6.7,98,0.28,,,0.64,Weather logger V3.1.,2017-01-23 15:08:00,
2017-01-23 10:13:00,44.4,44.2,30.46,North,0,2.7,9.4,99,0.43,,,0.69,Weather logger V3.1.,2017-01-23 15:13:00,